Location: Asheville, NC
(35.6000°N, 82.5500°W)
Time: 23:30:34
(UTC-04:00)

STRAND 1 - Pass Details

Date: 06 January 2018
Orbit: 769 x 781 km, 98.5° (Epoch: 17 June)

Event Time Altitude Azimuth Distance (km) Brightness Sun altitude
Exits shadow 20:47:24 14° 222° (SW) 2,078 ? -39.0°
Drops below altitude 10° 20:48:02 10° 219° (SW) 2,314 ? -39.1°
Sets 20:50:26 0° 212° (SSW) 3,240 ? -39.6°
